Tracking 31027 objects as of 19-Jul-2025
HD Live streaming from Space Station
objects crossing your sky now

CERES 3

Track CERES 3 now!
10-day predictions


NORAD ID: 49466
Int'l Code: 2021-105C
Perigee: 669.4 km
Apogee: 673.9 km
Inclination: 75.0 °
Period: 98.0 minutes
Semi major axis: 7042 km
RCS: Unknown
Launch date: November 16, 2021
Source: France (FR)
Launch site: FRENCH GUIANA (FRGUI)
Your satellite tracking list
OBJECT A
Track 1 satellite(s)




NASA's NSSDC Master Catalog

Two Line Element Set (TLE):
1 49466U 21105C   25195.90087085 0.00000350  00000-0  59788-4 0    09
2 49466  75.0083 239.9944 0003203 109.3736 250.6263 14.68926048    03
Source of the keplerian elements: McCants